[[{"header":{"parameterUnit":"m.s-1","parameterCategory":2,"la1":30.2992,"la2":30.254,"lo1":-89.0895,"lo2":-89.0443,"dy":0.0025,"dx":0.0025,"nx":19,"ny":19,"refTime":"2026-03-28T09:00:00:Z","depth":"0","parameterNumber":2,"parameterNumberName":"U-component_of_CURRENTS"},"data":[0,0,0,-0.1846,-0.1846,-0.1874,-0.1873,-0.1856,-0.1856,0,0,0,0,0,0,0,0,0,0,0,-0.183,-0.183,-0.1845,-0.1846,-0.1874,-0.1873,-0.1856,-0.1856,0,0,0,0,0,0,0,0,0,0,0,-0.183,-0.183,-0.183,-0.1847,-0.1874,-0.1873,-0.1856,-0.1846,0,0,0,0,0,0,0,0,0,0,-0.1826,-0.1816,-0.183,-0.183,-0.1847,-0.1874,-0.1873,-0.1846,-0.1847,-0.1832,0,-0.184,0,-0.1853,-0.1854,-0.1854,0,0,0,-0.1838,-0.1815,-0.1832,-0.183,-0.1847,-0.1874,-0.1859,-0.1847,-0.1848,-0.1832,-0.1839,-0.1839,-0.1853,-0.1854,-0.1854,-0.1896,-0.1897,0,0,-0.1836,-0.1824,-0.1832,-0.1832,-0.1858,-0.1858,-0.186,-0.1848,-0.1843,-0.1839,-0.1839,-0.1852,-0.1854,-0.1854,-0.1896,-0.1896,0,0,0,-0.1838,-0.1823,-0.184,-0.1832,-0.1845,-0.1859,-0.1861,-0.1844,-0.1852,-0.1839,-0.1852,-0.1854,-0.1853,-0.1895,-0.1896,-0.1978,0,0,0,-0.1836,-0.1825,-0.1839,-0.1831,-0.1846,-0.1851,-0.1857,-0.1853,-0.1853,-0.1852,-0.1854,-0.1853,-0.1894,-0.1895,-0.1974,-0.2026,0,0,0,-0.1828,-0.1823,-0.183,-0.183,-0.1848,-0.1852,-0.1859,-0.1853,-0.186,-0.1854,-0.1853,-0.1894,-0.1895,-0.1971,-0.202,-0.2088,0,0,0,-0.1809,-0.1838,-0.183,-0.187,-0.1848,-0.1908,-0.1859,-0.1883,-0.1884,-0.1854,-0.1894,-0.1896,-0.197,-0.2016,-0.2084,-0.2176,-0.2203,0,0,-0.1843,-0.1842,-0.1871,-0.1865,-0.1938,-0.1903,-0.1974,-0.1943,-0.19,-0.1891,-0.1892,-0.1975,-0.2019,-0.2087,-0.2263,-0.2288,0,0,0,-0.1881,-0.1901,-0.1922,-0.1959,-0.1989,-0.2028,-0.2004,-0.1998,-0.199,-0.1909,-0.1983,-0.2009,-0.2049,-0.2095,-0.2115,-0.217,-0.1903,-0.1903,-0.1902,-0.1897,-0.1935,-0.1993,-0.2043,-0.208,-0.2111,-0.2141,-0.2126,-0.2061,-0.2072,-0.2081,-0.2197,-0.2248,-0.2264,-0.232,-0.2078,-0.2078,-0.2078,-0.2078,-0.1958,-0.1995,-0.2047,-0.2113,-0.2162,-0.2209,-0.2258,-0.2233,-0.2265,-0.2181,-0.2215,-0.2186,-0.2291,-0.2342,-0.2084,-0.2083,-0.2082,-0.2082,-0.2081,-0.1964,-0.199,-0.2029,-0.2123,-0.2203,-0.2257,-0.2363,-0.2361,-0.2345,-0.2381,-0.241,-0.2409,-0.2451,-0.238,-0.2381,-0.2381,-0.2382,-0.2382,-0.2383,-0.1943,-0.1993,-0.2035,-0.2136,-0.2187,-0.2286,-0.2409,-0.248,-0.2544,-0.2527,-0.2527,-0.2516,-0.229,-0.2273,-0.2391,-0.239,-0.2389,-0.2388,-0.2387,-0.1936,-0.1947,-0.2014,-0.2064,-0.2211,-0.2315,-0.2469,-0.2671,-0.2743,-0.2798,-0.2784,-0.2611,-0.2599,-0.2582,-0.2573,-0.2762,-0.2762,-0.2762,-0.2762,-0.1896,-0.1923,-0.1979,-0.2062,-0.22,-0.2328,-0.2541,-0.2742,-0.2912,-0.2966,-0.2969,-0.2922,-0.2904,-0.2905,-0.2881,-0.2876,-0.3137,-0.3137,-0.3137,-0.186,-0.1894,-0.1912,-0.2023,-0.2184,-0.2335,-0.2502,-0.2797,-0.3075,-0.3153,-0.3035,-0.3019,-0.2943,-0.291,-0.2895,-0.2857,-0.284,0,0]},{"header":{"parameterUnit":"m.s-1","parameterCategory":2,"la1":30.2992,"la2":30.254,"lo1":-89.0895,"lo2":-89.0443,"dy":0.0025,"dx":0.0025,"nx":19,"ny":19,"refTime":"2026-03-28T09:00:00:Z","depth":"0","parameterNumber":3,"parameterNumberName":"V-component_of_CURRENTS"},"data":[0,0,0,-0.0232,-0.023,-0.0129,-0.0128,0.0011,0.0012,0,0,0,0,0,0,0,0,0,0,0,-0.027,-0.027,-0.0232,-0.023,-0.0129,-0.0128,0.0011,0.0012,0,0,0,0,0,0,0,0,0,0,0,-0.027,-0.027,-0.0269,-0.023,-0.0129,-0.0128,0.001,-0.0065,0,0,0,0,0,0,0,0,0,0,-0.0163,-0.0209,-0.027,-0.0269,-0.0229,-0.0129,-0.0128,-0.0069,-0.006,-0.0037,0,-0.0031,0,-0.001,0.002,0.0021,0,0,0,-0.0216,-0.0216,-0.0187,-0.0269,-0.0228,-0.0129,-0.017,-0.0064,-0.0055,-0.0026,-0.0029,-0.0024,-0.0008,0.0021,0.0022,0.0122,0.0123,0,0,-0.0222,-0.0248,-0.0193,-0.0181,-0.0215,-0.0174,-0.0168,-0.0058,-0.0055,-0.0029,-0.002,-0.0006,0.0022,0.0023,0.0122,0.0122,0,0,0,-0.0247,-0.0253,-0.0226,-0.0187,-0.0171,-0.0171,-0.0164,-0.006,-0.0051,-0.0019,-0.0004,0.0023,0.0024,0.0122,0.0122,0.0064,0,0,0,-0.025,-0.0268,-0.0229,-0.0243,-0.0174,-0.0117,-0.0168,-0.0058,-0.0045,-0.0005,0.0023,0.0025,0.0122,0.0122,0.0065,0.001,0,0,0,-0.0272,-0.027,-0.0262,-0.0245,-0.0206,-0.0118,-0.0102,-0.0055,-0.0037,0.0021,0.0026,0.0122,0.0122,0.0066,0.0013,0.0021,0,0,0,-0.0296,-0.0309,-0.0263,-0.0267,-0.0207,-0.0154,-0.0102,-0.0055,-0.0011,0.0023,0.0122,0.0122,0.0066,0.0015,0.0023,0.0056,0.0052,0,0,-0.033,-0.0314,-0.0315,-0.0272,-0.0253,-0.0166,-0.0124,-0.0049,0.0007,0.0089,0.0091,0.0064,0.0013,0.0021,0.0081,0.0076,0,0,0,-0.0337,-0.0345,-0.0328,-0.0304,-0.0242,-0.0188,-0.0096,-0.0044,0.0032,0.0034,0.009,0.0059,0.0066,0.0091,0.0087,0.0389,0.0124,0.0124,0.0124,-0.042,-0.0385,-0.0395,-0.0346,-0.0301,-0.0192,-0.0139,-0.0049,0.0016,0.0043,0.0031,0.0019,0.0046,0.0043,0.0355,0.0071,0.0071,0.007,0.007,-0.05,-0.0516,-0.0459,-0.046,-0.0376,-0.0325,-0.0182,-0.012,-0.003,0.0013,0.0025,0.0051,0.0036,0.037,0.0067,0.0067,0.0068,0.0068,0.0068,-0.0573,-0.0581,-0.0571,-0.0569,-0.053,-0.0422,-0.0379,-0.0246,-0.0113,-0.0095,-0.0025,-0.0023,0.0254,-0.0072,-0.0072,-0.0072,-0.0072,-0.0072,-0.0073,-0.0664,-0.0654,-0.0705,-0.0687,-0.0696,-0.0654,-0.0491,-0.0404,-0.0216,-0.01,-0.0099,0.03,-0.0024,-0.0037,-0.0076,-0.0075,-0.0075,-0.0074,-0.0074,-0.0771,-0.0769,-0.086,-0.0892,-0.0913,-0.093,-0.0746,-0.0507,-0.0357,-0.0259,0.0297,-0.0075,-0.0052,-0.0047,-0.006,-0.0102,-0.0102,-0.0102,-0.0102,-0.0852,-0.0855,-0.1011,-0.1104,-0.1143,-0.1072,-0.0978,-0.0627,-0.0014,0.0337,0.0459,0.0551,0.0538,0.0603,0.0593,0.0597,0.0723,0.0724,0.0726,-0.0935,-0.0977,-0.1119,-0.1208,-0.1266,-0.1226,-0.1123,-0.0668,0.0315,0.0792,0.0878,0.0843,0.1011,0.0967,0.1092,0.1054,0.1067,0,0]}],[{"header":{"parameterUnit":"m.s-1","parameterCategory":2,"la1":30.2992,"la2":30.254,"lo1":-89.0895,"lo2":-89.0443,"dy":0.0025,"dx":0.0025,"nx":19,"ny":19,"refTime":"2026-03-28T09:00:00:Z","depth":"2","parameterNumber":2,"parameterNumberName":"U-component_of_CURRENTS"},"data":[0,0,0,-0.1772,-0.1773,-0.1802,-0.1802,-0.1784,-0.1784,0,0,0,0,0,0,0,0,0,0,0,-0.1756,-0.1756,-0.1772,-0.1773,-0.1802,-0.1802,-0.1784,-0.1784,0,0,0,0,0,0,0,0,0,0,0,-0.1756,-0.1756,-0.1757,-0.1773,-0.1802,-0.1802,-0.1784,-0.1774,0,0,0,0,0,0,0,0,0,0,-0.1752,-0.1742,-0.1756,-0.1757,-0.1773,-0.1802,-0.1802,-0.1774,-0.1775,-0.1758,0,-0.1767,0,-0.178,-0.1783,-0.1782,0,0,0,-0.1764,-0.1742,-0.1758,-0.1757,-0.1774,-0.1802,-0.1786,-0.1775,-0.1775,-0.1759,-0.1767,-0.1767,-0.178,-0.1782,-0.1782,-0.1822,-0.1823,0,0,-0.1763,-0.1751,-0.1758,-0.1759,-0.1786,-0.1786,-0.1788,-0.1776,-0.1771,-0.1767,-0.1767,-0.178,-0.1782,-0.1782,-0.1822,-0.1823,0,0,0,-0.1764,-0.1749,-0.1767,-0.1759,-0.1772,-0.1787,-0.1789,-0.1772,-0.178,-0.1767,-0.178,-0.1782,-0.1782,-0.1821,-0.1822,-0.1904,0,0,0,-0.1762,-0.1751,-0.1766,-0.1758,-0.1772,-0.1779,-0.1785,-0.1781,-0.1781,-0.178,-0.1782,-0.1782,-0.182,-0.1822,-0.1901,-0.1952,0,0,0,-0.1754,-0.175,-0.1757,-0.1757,-0.1776,-0.178,-0.1787,-0.1781,-0.1789,-0.1782,-0.1781,-0.182,-0.1821,-0.1897,-0.1946,-0.2013,0,0,0,-0.1735,-0.1765,-0.1757,-0.1797,-0.1776,-0.1835,-0.1787,-0.1811,-0.1812,-0.1782,-0.1821,-0.1822,-0.1896,-0.1942,-0.2009,-0.2078,-0.2103,0,0,-0.1769,-0.1768,-0.1796,-0.1791,-0.1863,-0.183,-0.1899,-0.1869,-0.1827,-0.1817,-0.1818,-0.1902,-0.1945,-0.2012,-0.2163,-0.2186,0,0,0,-0.1806,-0.1826,-0.1847,-0.1883,-0.1913,-0.1952,-0.1929,-0.1924,-0.1916,-0.1837,-0.1909,-0.1934,-0.1974,-0.2006,-0.2025,-0.1829,-0.1829,-0.1829,-0.1829,-0.1823,-0.1859,-0.1916,-0.1965,-0.2002,-0.2033,-0.2063,-0.2048,-0.1985,-0.1997,-0.2006,-0.2122,-0.2157,-0.2172,-0.2002,-0.2003,-0.2003,-0.2003,-0.2004,-0.1882,-0.1919,-0.1969,-0.2034,-0.2082,-0.2129,-0.2178,-0.2155,-0.2187,-0.2105,-0.2139,-0.2097,-0.2197,-0.201,-0.2009,-0.2008,-0.2007,-0.2007,-0.2007,-0.1888,-0.1914,-0.1953,-0.2044,-0.2124,-0.2179,-0.2283,-0.2282,-0.2267,-0.2304,-0.2317,-0.2316,-0.218,-0.2304,-0.2304,-0.2305,-0.2305,-0.2306,-0.2306,-0.1869,-0.1917,-0.196,-0.2058,-0.2109,-0.2208,-0.233,-0.2399,-0.2455,-0.2432,-0.2432,-0.2223,-0.2213,-0.2198,-0.2314,-0.2313,-0.2312,-0.2311,-0.231,-0.1862,-0.1873,-0.1939,-0.1989,-0.2133,-0.2204,-0.2379,-0.2569,-0.2645,-0.2692,-0.2513,-0.2505,-0.249,-0.2474,-0.2465,-0.2644,-0.2644,-0.2644,-0.2644,-0.1823,-0.185,-0.1906,-0.1987,-0.212,-0.2205,-0.2335,-0.2416,-0.2529,-0.2484,-0.249,-0.2406,-0.2399,-0.237,-0.2357,-0.2341,-0.2488,-0.2487,-0.2486,-0.1787,-0.1821,-0.1839,-0.1948,-0.2103,-0.218,-0.2174,-0.2106,-0.2212,-0.2464,-0.2296,-0.2666,-0.2557,-0.254,-0.2502,-0.2478,-0.2455,0,0]},{"header":{"parameterUnit":"m.s-1","parameterCategory":2,"la1":30.2992,"la2":30.254,"lo1":-89.0895,"lo2":-89.0443,"dy":0.0025,"dx":0.0025,"nx":19,"ny":19,"refTime":"2026-03-28T09:00:00:Z","depth":"2","parameterNumber":3,"parameterNumberName":"V-component_of_CURRENTS"},"data":[0,0,0,-0.0234,-0.0232,-0.0132,-0.0131,0.0005,0.0006,0,0,0,0,0,0,0,0,0,0,0,-0.0272,-0.0272,-0.0234,-0.0232,-0.0132,-0.0131,0.0005,0.0006,0,0,0,0,0,0,0,0,0,0,0,-0.0272,-0.0272,-0.0271,-0.0232,-0.0132,-0.0131,0.0004,-0.007,0,0,0,0,0,0,0,0,0,0,-0.0167,-0.0212,-0.0272,-0.0271,-0.0231,-0.0132,-0.0131,-0.0074,-0.0065,-0.0043,0,-0.0037,0,-0.0016,0.0014,0.0014,0,0,0,-0.0219,-0.0219,-0.019,-0.0271,-0.0231,-0.0133,-0.0173,-0.0069,-0.006,-0.0032,-0.0035,-0.003,-0.0014,0.0015,0.0015,0.0113,0.0113,0,0,-0.0224,-0.025,-0.0196,-0.0185,-0.0217,-0.0177,-0.0171,-0.0063,-0.006,-0.0035,-0.0027,-0.0012,0.0015,0.0016,0.0112,0.0113,0,0,0,-0.0249,-0.0255,-0.0228,-0.019,-0.0175,-0.0174,-0.0167,-0.0065,-0.0056,-0.0025,-0.001,0.0016,0.0018,0.0112,0.0113,0.0055,0,0,0,-0.0252,-0.027,-0.0231,-0.0245,-0.0177,-0.0121,-0.0171,-0.0063,-0.005,-0.0011,0.0016,0.0019,0.0112,0.0112,0.0056,0.0001,0,0,0,-0.0274,-0.0272,-0.0264,-0.0247,-0.0209,-0.0122,-0.0106,-0.006,-0.0042,0.0014,0.0019,0.0112,0.0112,0.0057,0.0005,0.0014,0,0,0,-0.0298,-0.0311,-0.0265,-0.0269,-0.021,-0.0158,-0.0106,-0.006,-0.0017,0.0017,0.0112,0.0113,0.0057,0.0007,0.0015,0.0042,0.0037,0,0,-0.0332,-0.0316,-0.0317,-0.0274,-0.0257,-0.017,-0.013,-0.0055,-0.0,0.008,0.0082,0.0055,0.0005,0.0014,0.0064,0.0059,0,0,0,-0.0339,-0.0347,-0.0331,-0.0308,-0.0247,-0.0194,-0.0103,-0.0052,0.0023,0.0026,0.008,0.005,0.0057,0.0078,0.0074,0.0114,0.0114,0.0114,0.0114,-0.0423,-0.0388,-0.0399,-0.0351,-0.0307,-0.0199,-0.0147,-0.0058,0.0006,0.0033,0.0022,0.001,0.0032,0.0029,0.006,0.006,0.006,0.006,0.006,-0.0502,-0.0518,-0.0463,-0.0464,-0.0382,-0.0332,-0.0191,-0.0129,-0.0039,0.0003,0.0015,0.0038,0.0021,0.0055,0.0056,0.0057,0.0057,0.0058,0.0058,-0.0576,-0.0584,-0.0574,-0.0573,-0.0535,-0.0428,-0.0385,-0.0254,-0.0122,-0.0103,-0.0038,-0.0036,-0.0039,-0.008,-0.008,-0.008,-0.008,-0.0081,-0.0081,-0.0665,-0.0656,-0.0707,-0.0689,-0.0699,-0.0657,-0.0496,-0.041,-0.0226,-0.0113,-0.0111,-0.0037,-0.0032,-0.0045,-0.0084,-0.0083,-0.0083,-0.0082,-0.0082,-0.0772,-0.0769,-0.0859,-0.0892,-0.0913,-0.0926,-0.0747,-0.0514,-0.0367,-0.0272,-0.0092,-0.0091,-0.0068,-0.0063,-0.0075,-0.0119,-0.0119,-0.0119,-0.0119,-0.0852,-0.0855,-0.1009,-0.11,-0.1139,-0.1064,-0.0981,-0.068,-0.0343,-0.0166,-0.0164,-0.0133,-0.0129,-0.0108,-0.0102,-0.0114,-0.0169,-0.0169,-0.017,-0.0934,-0.0976,-0.1116,-0.1204,-0.126,-0.1212,-0.1129,-0.0786,-0.0305,-0.0176,-0.0214,-0.0114,-0.0061,-0.0059,-0.0017,-0.0011,-0.0026,0,0]}],[{"header":{"parameterUnit":"m.s-1","parameterCategory":2,"la1":30.2992,"la2":30.254,"lo1":-89.0895,"lo2":-89.0443,"dy":0.0025,"dx":0.0025,"nx":19,"ny":19,"refTime":"2026-03-28T09:00:00:Z","depth":"4","parameterNumber":2,"parameterNumberName":"U-component_of_CURRENTS"},"data":[0,0,0,-0.1114,-0.1116,-0.1223,-0.1223,-0.1267,-0.1267,0,0,0,0,0,0,0,0,0,0,0,-0.1079,-0.108,-0.1113,-0.1116,-0.1223,-0.1223,-0.1267,-0.1267,0,0,0,0,0,0,0,0,0,0,0,-0.1079,-0.108,-0.1081,-0.1117,-0.1223,-0.1223,-0.1267,-0.1209,0,0,0,0,0,0,0,0,0,0,-0.1117,-0.1098,-0.108,-0.1081,-0.1117,-0.1223,-0.1223,-0.1207,-0.1212,-0.1192,0,-0.1217,0,-0.1241,-0.1268,-0.1268,0,0,0,-0.1115,-0.1094,-0.1123,-0.1081,-0.1118,-0.1223,-0.1174,-0.1211,-0.1217,-0.1198,-0.1218,-0.122,-0.1241,-0.1268,-0.1268,-0.1332,-0.1333,0,0,-0.1109,-0.1094,-0.1119,-0.1127,-0.1155,-0.1171,-0.1178,-0.1215,-0.1222,-0.1218,-0.1222,-0.1242,-0.1268,-0.1268,-0.1332,-0.1333,0,0,0,-0.1093,-0.109,-0.1121,-0.1125,-0.1151,-0.1174,-0.1182,-0.1221,-0.1232,-0.1223,-0.1242,-0.1268,-0.1268,-0.1331,-0.1332,-0.1414,0,0,0,-0.1089,-0.1081,-0.1118,-0.111,-0.1151,-0.12,-0.1186,-0.123,-0.1235,-0.1242,-0.1268,-0.1268,-0.1331,-0.1332,-0.141,-0.1449,0,0,0,-0.1073,-0.1079,-0.1095,-0.1109,-0.1156,-0.12,-0.1214,-0.1232,-0.1246,-0.1268,-0.1268,-0.133,-0.1331,-0.1407,-0.1443,-0.1511,0,0,0,-0.1048,-0.1081,-0.1095,-0.1142,-0.1155,-0.1234,-0.1214,-0.1267,-0.1291,-0.1268,-0.1331,-0.1332,-0.1406,-0.144,-0.1507,-0.1337,0,0,0,-0.1074,-0.1084,-0.1113,-0.1128,-0.1207,-0.1218,-0.1306,-0.1323,-0.1303,-0.1309,-0.1312,-0.1411,-0.1443,-0.151,-0.1423,0,0,0,0,-0.1112,-0.1134,-0.1161,-0.1212,-0.1264,-0.1334,-0.1355,-0.1369,-0.1403,-0.1325,-0.1418,-0.1436,-0.1475,-0.1364,-0.1339,-0.1339,-0.1339,-0.1339,-0.1339,-0.1112,-0.1155,-0.1215,-0.1279,-0.1336,-0.1414,-0.1471,-0.1493,-0.1456,-0.1486,-0.1507,-0.162,-0.1506,-0.151,-0.151,-0.151,-0.1511,-0.1511,-0.1511,-0.1144,-0.1175,-0.1254,-0.133,-0.1413,-0.149,-0.1581,-0.159,-0.1657,-0.1594,-0.1629,-0.1463,-0.1519,-0.1518,-0.1517,-0.1516,-0.1515,-0.1514,-0.1514,-0.112,-0.1143,-0.1209,-0.1327,-0.1446,-0.1546,-0.1664,-0.1715,-0.1733,-0.1779,-0.1655,-0.1686,-0.1674,-0.1793,-0.1794,-0.1794,-0.1795,-0.1795,-0.1795,-0.1056,-0.1126,-0.1193,-0.1328,-0.141,-0.1545,-0.1713,-0.1777,-0.1824,-0.1738,-0.1803,-0.1716,-0.1706,-0.1691,-0.1803,-0.1802,-0.1801,-0.18,-0.1799,-0.1005,-0.1044,-0.1132,-0.1214,-0.1409,-0.1492,-0.1684,-0.1773,-0.1832,-0.1807,-0.1718,-0.172,-0.1679,-0.1671,-0.1651,-0.1757,-0.1755,-0.1753,0,-0.0946,-0.098,-0.1078,-0.1187,-0.1315,-0.146,-0.1536,-0.1645,-0.1682,-0.1612,-0.1806,-0.1701,-0.1702,-0.1648,-0.1638,-0.1612,0,0,0,-0.09,-0.0942,-0.0984,-0.1122,-0.1257,-0.1393,-0.155,-0.1543,-0.1663,-0.1699,-0.1709,-0.1721,-0.1809,-0.1825,-0.1767,-0.1755,-0.1727,0,0]},{"header":{"parameterUnit":"m.s-1","parameterCategory":2,"la1":30.2992,"la2":30.254,"lo1":-89.0895,"lo2":-89.0443,"dy":0.0025,"dx":0.0025,"nx":19,"ny":19,"refTime":"2026-03-28T09:00:00:Z","depth":"4","parameterNumber":3,"parameterNumberName":"V-component_of_CURRENTS"},"data":[0,0,0,-0.0183,-0.0182,-0.0115,-0.0115,-0.0024,-0.0023,0,0,0,0,0,0,0,0,0,0,0,-0.0208,-0.0208,-0.0183,-0.0182,-0.0115,-0.0115,-0.0024,-0.0023,0,0,0,0,0,0,0,0,0,0,0,-0.0208,-0.0208,-0.0208,-0.0182,-0.0115,-0.0115,-0.0024,-0.0073,0,0,0,0,0,0,0,0,0,0,-0.0138,-0.0169,-0.0208,-0.0208,-0.0181,-0.0115,-0.0115,-0.0076,-0.007,-0.0056,0,-0.0054,0,-0.004,-0.0018,-0.0018,0,0,0,-0.0171,-0.0173,-0.0154,-0.0208,-0.0181,-0.0115,-0.0142,-0.0072,-0.0066,-0.0049,-0.0053,-0.0049,-0.0038,-0.0017,-0.0017,0.0035,0.0035,0,0,-0.0175,-0.0194,-0.0158,-0.0151,-0.0174,-0.0144,-0.014,-0.0069,-0.0068,-0.0052,-0.0047,-0.0037,-0.0017,-0.0016,0.0035,0.0035,0,0,0,-0.0192,-0.0196,-0.0179,-0.0154,-0.0145,-0.0143,-0.0138,-0.0071,-0.0065,-0.0046,-0.0036,-0.0016,-0.0016,0.0035,0.0035,-0.0012,0,0,0,-0.0194,-0.0207,-0.0181,-0.0191,-0.0146,-0.0108,-0.0142,-0.007,-0.0061,-0.0036,-0.0016,-0.0015,0.0035,0.0035,-0.0011,-0.0052,0,0,0,-0.0209,-0.0209,-0.0204,-0.0192,-0.0168,-0.0109,-0.0099,-0.0067,-0.0055,-0.0018,-0.0015,0.0035,0.0035,-0.0009,-0.0049,-0.0035,0,0,0,-0.0226,-0.0241,-0.0205,-0.0217,-0.0168,-0.0145,-0.0099,-0.0074,-0.0047,-0.0016,0.0035,0.0035,-0.0009,-0.0047,-0.0034,-0.0104,0,0,0,-0.0257,-0.0245,-0.0252,-0.0219,-0.0225,-0.0153,-0.014,-0.0084,-0.0039,0.0014,0.0016,-0.0011,-0.0049,-0.0035,-0.0104,0,0,0,0,-0.0271,-0.0282,-0.0276,-0.0269,-0.0232,-0.0198,-0.0132,-0.0091,-0.0034,-0.0024,0.0002,-0.0021,-0.001,-0.0047,0.0035,0.0035,0.0035,0.0035,0.0035,-0.0338,-0.0321,-0.0343,-0.032,-0.0297,-0.0222,-0.0183,-0.0112,-0.0063,-0.0041,-0.0049,-0.0061,-0.0101,-0.0025,-0.0025,-0.0025,-0.0025,-0.0026,-0.0026,-0.0408,-0.0425,-0.04,-0.0418,-0.0366,-0.034,-0.0232,-0.0179,-0.0106,-0.0072,-0.0058,-0.0082,-0.003,-0.0029,-0.0029,-0.0028,-0.0028,-0.0027,-0.0027,-0.046,-0.0469,-0.0479,-0.0501,-0.0488,-0.0417,-0.0385,-0.0281,-0.017,-0.0152,-0.0154,-0.0085,-0.0092,-0.013,-0.013,-0.013,-0.013,-0.013,-0.013,-0.051,-0.0521,-0.0572,-0.0586,-0.0606,-0.0585,-0.0469,-0.0402,-0.027,-0.0227,-0.0162,-0.0096,-0.0092,-0.0096,-0.0132,-0.0132,-0.0132,-0.0131,-0.0131,-0.0574,-0.0582,-0.0664,-0.0704,-0.0752,-0.0729,-0.0629,-0.047,-0.0398,-0.0322,-0.0245,-0.0239,-0.0225,-0.0218,-0.0226,-0.0302,-0.0303,-0.0304,0,-0.0616,-0.0627,-0.0752,-0.0839,-0.088,-0.082,-0.0736,-0.0617,-0.0444,-0.0458,-0.0393,-0.0315,-0.0307,-0.0299,-0.0294,-0.0308,0,0,0,-0.0662,-0.0695,-0.0802,-0.0892,-0.0946,-0.0817,-0.0709,-0.0654,-0.0488,-0.0405,-0.033,-0.0324,-0.0239,-0.0138,-0.0101,-0.0097,-0.0101,0,0]}]]